Location: Exeidioux
(45.6312°N, 1.6819°E)
Time: 06:26:20
(UTC+00:00)

Ariane Rocket - Pass Details

Date: 03 March 2021
Orbit: 759 x 771 km, 98.7° (Epoch: 10 April)

Event Time Altitude Azimuth Distance (km) Brightness Sun altitude
Exits shadow 20:22:15 40° 211° (SSW) 1,132 3.8 -28.2°
Maximum altitude 20:23:41 52° 259° (W) 954 3.7 -28.4°
Drops below altitude 10° 20:28:41 10° 337° (NNW) 2,322 6.0 -29.2°
Sets 20:31:04 0° 342° (NNW) 3,252 6.8 -29.6°
